STARLINK-11559, 62831

Orbit data source: Space-Track

STARLINK-11559, 62831 is a payload satellite owned by SpaceX/Seattle (US) in LEO that was launched on Mon, 27 Jan 2025 UTC via an FALCON 9 launch vehicle from the Air Force Eastern Test Range (AFETR). Payload-class satellites include a variety of spacecraft equipped with specific instruments for various scientific and technological missions. These include communications satellites like Starlink; space stations such as the ISS; scientific satellites like the Hubble; Earth observation satellites from companies like Planet Labs, Umbra, and HawkEye 360; GPS; miniature CubeSats for education and research; and military/defense satellites.

Loading next visibility...
Identifier
62831, 2025-019C
Orbit
LEO
Last TLE update
21 hours ago
Origin
Manufacturer
SpaceX/Seattle
Mission
Operational Commercial Communications
Bus & Motor
STARLINK V2M, Unknown motor
Mass
730 kg wet, ~700 kg dry
Launch date (UTC)
2025-01-27 (5 months ago)
Launch vehicle
FALCON 9
Launch site
Air Force Eastern Test Range (AFETR)
Object type
Payload
Rocket body
Debris
Shape & HBR
Box + 2 Pan, 29 m
Radar Cross Section
36.964 m², Large (>1 m²)

Expand to show TLE details & history

TLE from 21 hours ago
0 STARLINK-11559
1 62831U 25019C   25182.96849589  .00027073  00000-0  21380-3 0  9999
2 62831  42.9979  17.7120 0002438 267.9593  92.0995 15.70837430 24444
Epoch: 2025-07-01T23:14Z
TLE epoch observation values (Epoch: 2025-07-01T23:14:38.044Z)
Latitude
-0.00007°
Longitude
108.79708°
Altitude
356.334 km
Speed
7.697 km/s
True Right ascension
01h 10m 50s
True Declination
0° 00' 00"
Sunlit
Object was in daylight at epoch
Visualization orbit readout
Latitude
4.63034°
Longitude
108.37627°
Altitude
355.728 km
Speed
7.698 km/s
Apparent Right ascension
23h 11m 27s
Apparent Declination
-20° 26' 57"
Sunlit
Object is in daylight
Visualization observer readout
Local Sidereal Time
08:22:13
Azimuth
285.647° WNW
Elevation
-49.081°
Doppler factor
1
Orbital elements
Apogee altitude
360.127 km
Perigee altitude
356.842 km
Semi-major axis
6,736.621 km
Eccentricity
0.00024
Inclination
42.9979°
RAAN
17.712°
Arg. of periapsis
267.9593°
True anomaly
Unknown
Mean anomaly
92.0995°
Eccentric anomaly
Unknown
Mean motion
3.92536 °/min
Orbital period
91.71 mins
BSTAR
0.0002138
Loading maneuver chart data...
Loading SW <> Apogee altitude chart data...
Loading historical data...
Loading historical data...
Loading historical data...
Loading historical data...
Loading historical data...
Loading historical data...
Loading historical data...

STARLINK-11559 Visibility forecast

Observer location: undefined°, undefined°

Span
Click to sort rows by Start time (UTC) header in descending order
Start Az.
Max El. time (UTC)
Max El. Az.
Max El.
End time (UTC)
End Az.
5 mins2025-07-02 21:02:09.664Z285.905° WNW2025-07-02 21:05:09.664Z178.988° S43.623°2025-07-02 21:07:09.664Z117.752° SE
4 mins2025-07-03 16:42:09.664Z242.717° WSW2025-07-03 16:44:09.664Z105.432° ESE42.742°2025-07-03 16:46:09.664Z74.657° E
4 mins2025-07-03 19:55:09.664Z300.114° NW2025-07-03 19:56:09.664Z337.723° N40.844°2025-07-03 19:59:09.664Z96.578° ESE
|